Location: Peebles
(55.6412°N, 3.1714°W)
Time: 01:39:07
(UTC+01:00)

FENGYUN 1C DEB - Pass Details

Date: 05 July 2022
Orbit: 580 x 1160 km, 99.3° (Epoch: 11 August)

Event Time Altitude Azimuth Distance (km) Brightness Sun altitude
Exits shadow 01:58:58 12° 213° (SSW) 2,466 ? -11.1°
Maximum altitude 02:03:37 29° 271° (W) 1,713 ? -10.9°
Drops below altitude 10° 02:09:16 10° 330° (NNW) 2,909 ? -10.8°
Sets 02:12:21 0° 341° (NNW) 3,938 ? -10.7°
